Tracking 29892 objects as of 21-Nov-2024
HD Live streaming from Space Station
objects crossing your sky now

STARLINK-31483

Track STARLINK-31483 now!
10-day predictions
STARLINK-31483 is classified as:


NORAD ID: 59411
Int'l Code: 2024-064P
Perigee: 450.0 km
Apogee: 452.4 km
Inclination: 43.0 °
Period: 93.5 minutes
Semi major axis: 6822 km
RCS: Unknown
Launch date: April 5, 2024
Source: United States (US)
Launch site: AIR FORCE EASTERN TEST RANGE (AFETR)
Your satellite tracking list
Your tracking list is empty




NASA's NSSDC Master Catalog

Two Line Element Set (TLE):
1 59411U 24064P   24325.98933190  .00000693  00000-0  23862-4 0  9997
2 59411  43.0003 220.5445 0001741 265.6411  94.4247 15.40700281 36672
Source of the keplerian elements: AFSPC